Location: Fensholt
(55.9856°N, 10.0808°E)
Time: 19:32:48
(UTC+00:00)

ATLAS CENTAUR R/B - Pass Details

Date: 07 June 2020
Orbit: 474 x 673 km, 64.7° (Epoch: 02 July)

Event Time Altitude Azimuth Distance (km) Brightness Sun altitude
Rises 01:28:26 0° 295° (WNW) 2,720 4.8 -6.6°
Reaches altitude 10° 01:31:03 10° 310° (NW) 1,789 4.1 -6.4°
Maximum altitude 01:34:16 23° 4° (N) 1,131 3.9 -6.1°
Drops below altitude 10° 01:37:22 10° 59° (ENE) 1,709 5.0 -5.9°
Sets 01:39:49 0° 74° (ENE) 2,567 5.6 -5.7°
